Weather in Inzivka

Ukraine / Zaporizhia Region     46°45′01″N   36°04′36″E
temp.,
°C
wind,
m/s
gust,
m/s
humid.,
%
clouds,
%
prec.,
mm/h
press.,
hPa
HPBL,
m
2 march, tue
tue223:00+1n34822 0.0 102973
02:000nnw35821 0.0 1030118
05:000nw34830 0.0 102993
08:00+1wnw34772 0.0 1029227
11:00+5w57580 0.0 10281042
14:00+6w795718 0.0 1026991
17:00+4wsw61065100 0.0 1023744
20:00+3wsw8147383 0.0 1022598
3 march, wed
wed323:00+3w8148073 0.0 1020602
02:00+2nw6118381 0.1 1020520
05:00+3nw71186100 0.1 1020905
08:00+3nnw71070100 0.1 10231027
11:00+4nnw796337 0.0 1024932
14:00+6nw795218 0.0 10251216
17:00+5nw48540 0.0 1025398
20:00+3nw35640 0.0 102793
4 march, thu
thu423:00+2wnw33690 0.0 102758
02:00+1w33710 0.0 102659
05:00+1wsw35760 0.0 1025110
08:00+3wsw48670 0.0 1024325
11:00+7sw79610 0.0 10221007
14:00+7sw811610 0.0 1020915
17:00+6ssw710640 0.0 1018395
20:00+5sw612785 0.0 1017358
5 march, fri
fri523:00+4sw7148167 0.0 1016469
02:00+3sw6138540 0.0 1016489
05:00+3sw612870 0.0 1015420
08:00+5sw711845 0.0 1015511
11:00+7ssw797379 0.0 1015518
14:00+8ssw796686 0.0 1014567
17:00+7ssw7117594 0.0 1012328
20:00+6ssw6118392 0.0 1013211
6 march, sat
sat623:00+5sw5118822 0.0 1012264
02:00+5wsw499432 0.0 1012272
05:00+5wsw3496100 0.0 1012106
08:00+6nnw3589100 0.0 1013257
11:00+4n6890100 0.1 1014397
14:00+2n71094100 1.6 1015634
17:00+4nnw6954100 0.1 10171218
20:00+2nnw61059100 0.1 1020951